Welcome to the New NWS' Forecast!
Most changes are behind the scenes, but click here for differences you might notice.
Latest weather observations around

Fayetteville, Drake Field (KFYV)

Using English Units (Switch to International System of Units)
Date/ Time (CDT) Wind (mph) Vis. (mi) Weather Sky Cond. Temp (°F) Rel. Humidity Wind Chill (°F) Heat Index (°F) Pressure Precip. (in)
Air Dwpt 6 hour Altimeter (inHg) Sea level (inHg) 1 hr 3 hr 6 hr
Max Min
Jul 28 06:53 Calm 10 Clear CLR 74 74     100%   76 29.93 29.88     0
Jul 28 06:02 Calm 10 Mostly Cloudy SCT029 BKN070 75 75     100%   77 29.93        
Jul 28 05:53 Calm 10 Mostly Cloudy BKN029 BKN065 75 75     100%   77 29.93 29.88      
Jul 28 04:53 Calm 10 Mostly Cloudy BKN070 BKN110 75 75     100%   77 29.92 29.87 0    
Jul 28 03:53 S 5 9 Light Rain FEW019 BKN065 OVC085 75 75     100%   77 29.91 29.85 0 0  
Jul 28 03:11 Calm 6 Light Rain and Fog/Mist SCT035 BKN075 OVC100 75 75     100%   77 29.92   0    
Jul 28 02:53 Calm 10 Light Rain OVC038 76 76     100%   78 29.92 29.87 0    
Jul 28 02:33 WNW 3 9 Thunderstorms and Rain BKN041 OVC050 75 75     100%   77 29.92   0    
Jul 28 01:59 SSW 6 4 Light Rain and Fog/Mist BKN055 OVC070 77 75     94%   79 29.92   0    
Jul 28 01:53 SW 14 2 Thunderstorms and Heavy Rain and Fog/Mist FEW035 BKN055 OVC070 77 77     100%   79 29.92 29.86 0    
Jul 28 01:47 SSW 7 2.5 Thunderstorms and Rain and Fog/Mist SCT055 BKN070 75 75     100%   77 29.91   0    
Jul 28 00:53 Calm 10 Mostly Cloudy BKN090 76 76     100%   78 29.91 29.85      
Jul 27 23:53 S 5 10 Clear CLR 77 77     100%   79 29.93 29.88      
Jul 27 22:53 Calm 10 Mostly Cloudy BKN100 78 78     100%   81 29.93 29.88      
Jul 27 21:53 Calm 10 Cloudy OVC110 79 78     97%   83 29.93 29.88      
Jul 27 20:53 Calm 10 Cloudy OVC100 80 79     97%   87 29.93 29.88      
Jul 27 19:53 Calm 10 Cloudy OVC100 82 78     88%   91 29.91 29.86      
Jul 27 18:53 WSW 5 10 Clear CLR 84 75     74%   92 29.92 29.87      
Jul 27 17:53 SW 7 10 Clear CLR 85 75     72%   93 29.93 29.88      
Jul 27 16:53 SSW 8 10 Clear CLR 86 75     70%   95 29.94 29.89      
Jul 27 15:53 SW 10 10 Mostly Clear FEW030 86 76     72%   96 29.95 29.9      
Jul 27 14:53 S 8 10 Clear CLR 87 75     68%   97 29.97 29.91      
Jul 27 13:53 SW 6 10 Clear CLR 85 74     70%   92 29.98 29.93      
Jul 27 12:53 S 3 10 Clear CLR 86 75     70%   95 30.01 29.97      
Jul 27 11:53 WSW 7 10 Mostly Cloudy SCT100 BKN110 82 74     77%   88 30.04 29.99      
Jul 27 10:53 SSW 9 10 Clear CLR 81 74     79%   86 30.04 29.99      
Jul 27 09:53 SSW 8 10 Clear CLR 80 73     79%   84 30.04 30      
Jul 27 05:53 SW 7 10 Clear CLR 78 72     82%   79 30 29.95      
Jul 27 04:53 SSW 3 10 Clear CLR 77 72     84%   78 30 29.95      
Jul 27 03:53 SW 3 10 Clear CLR 77 72     84%   78 30 29.95      
Jul 27 02:53 SSW 3 10 Clear CLR 74 73     97%   76 30.01 29.96      
Jul 27 01:53 Calm 10 Clear CLR 74 73     97%   76 30.02 29.97      
Jul 27 00:53 Calm 10 Clear CLR 74 73     97%   76 30.04 29.98      
Jul 26 23:53 S 3 10 Clear CLR 76 73     91%   77 30.05 30      
Jul 26 22:53 Calm 10 Clear CLR 77 74     90%   79 30.03 29.98      
Jul 26 21:53 Calm 10 Clear CLR 76 75     97%   78 30.02 29.97      
Jul 26 20:53 Calm 10 Clear CLR 80 76     87%   85 30.02 29.96      
Jul 26 19:53 SSE 3 10 Clear CLR 84 76     77%   93 30.02 29.98      
Jul 26 18:53 SSE 3 10 Clear CLR 86 75     70%   95 30.03 29.98      
Jul 26 17:53 S 9 10 Clear CLR 88 73     61%   96 30.03 29.99      
Jul 26 16:53 S 11 10 Clear CLR 89 74     61%   98 30.04 29.99      
Jul 26 15:53 SSW 11 10 Mostly Clear FEW070 89 74     61%   98 30.05 30      
Jul 26 14:53 S 10 10 Partly Cloudy FEW042 SCT055 89 75     63%   99 30.06 30.01      
Jul 26 13:53 WSW 10 10 Partly Cloudy SCT041 SCT050 91 75     60%   102 30.07 30.02      
Jul 26 12:53 SSW 16 10 Clear CLR 90 75     62%   101 30.1 30.05      
Jul 26 11:53 SW 8 10 Clear CLR 86 74     67%   94 30.11 30.06      
Jul 26 10:53 SSW 9 10 Clear CLR 86 74     67%   94 30.12 30.07      
Jul 26 09:53 SSW 11 10 Clear CLR 84 74     72%   91 30.11 30.06      
Jul 26 08:53 S 8 10 Clear CLR 81 74     79%   86 30.11 30.06      
Jul 26 07:53 SSW 6 10 Clear CLR 76 74     94%   78 30.11 30.06      
Jul 26 06:53 SSE 3 7 Clear CLR 71 71     100%   73 30.11 30.06      
Jul 26 05:53 S 3 10 Clear CLR 71 71     100%   73 30.1 30.05      
Jul 26 04:53 Calm 10 Clear CLR 73 73     100%   75 30.1 30.05      
Jul 26 03:53 Calm 8 Clear CLR 72 72     100%   74 30.1 30.05      
Jul 26 02:53 Calm 10 Clear CLR 73 73     100%   75 30.11 30.06      
Jul 26 01:53 Calm 9 Clear CLR 73 73     100%   75 30.11 30.06      
Jul 26 00:53 Calm 9 Clear CLR 74 74     100%   76 30.11 30.06      
Jul 25 23:53 S 3 10 Clear CLR 75 75     100%   77 30.1 30.05      
Jul 25 22:53 SW 3 10 Clear CLR 76 75     97%   78 30.1 30.05      
Jul 25 21:53 Calm 10 Clear CLR 77 76     96%   79 30.08 30.03      
Jul 25 20:53 Calm 10 Clear CLR 80 76     87%   85 30.06 30.01      
Jul 25 19:53 SSE 3 10 Clear CLR 86 74     67%   94 30.07 30.02      
Jul 25 18:53 S 7 10 Clear CLR 89 73     59%   97 30.07 30.02      
Jul 25 17:53 SE 9 10 Clear CLR 90 70     52%   95 30.07 30.02      
Jul 25 16:53 5 10 Clear CLR 90 72     56%   97 30.08 30.03      
Jul 25 15:53 S 10 10 Clear CLR 91 72     54%   99 30.09 30.04      
Jul 25 14:53 SE 7 10 Clear CLR 91 72     54%   99 30.1 30.05      
Jul 25 13:53 3 10 Partly Cloudy FEW044 SCT055 90 74     59%   99 30.11 30.06      
Jul 25 12:53 SSE 6 10 Mostly Clear FEW039 89 73     59%   97 30.12 30.06      
Jul 25 11:53 S 5 10 Clear CLR 86 73     65%   93 30.12 30.07      
Jul 25 09:53 SSW 5 10 Clear CLR 83 74     74%   89 30.13 30.08      
Jul 25 08:53 S 3 10 Clear CLR 78 75     90%   80 30.12 30.08      
Jul 25 07:53 S 5 10 Clear CLR 72 72     100%   74 30.12 30.07      
Jul 25 06:53 S 5 8 Clear CLR 69 69     100%     30.11 30.07      
Jul 25 05:53 S 5 10 Clear CLR 69 69     100%     30.09 30.04      
Jul 25 04:53 Calm 9 Clear CLR 70 70     100%     30.08 30.03      
Jul 25 03:53 S 5 9 Clear CLR 70 70     100%     30.07 30.02      
Jul 25 02:53 Calm 8 Clear CLR 71 71     100%   73 30.07 30.01      
Jul 25 01:53 Calm 10 Clear CLR 72 72     100%   74 30.06 30.01      
Jul 25 00:53 SSE 3 10 Clear CLR 73 73     100%   75 30.06 30.01     0
Jul 24 23:53 SSE 3 10 Clear CLR 73 73     100%   75 30.05 30      
Jul 24 22:53 Calm 10 Clear CLR 74 74     100%   76 30.04 29.99      
Jul 24 21:53 Calm 10 Clear CLR 75 75     100%   77 30.02 29.98   0  
Jul 24 20:53 Calm 10 Clear CLR 76 76     100%   78 30 29.95      
Jul 24 19:53 SE 3 10 Clear CLR 81 76     85%   87 29.97 29.93 0    
Jul 24 18:53 SSW 7 10 Light Rain FEW012 SCT048 BKN065 82 75     79%   89 29.96 29.92 0   0
Jul 24 17:53 SW 8 10 Clear CLR 89 74     61%   98 29.97 29.92      
Jul 24 16:53 SSW 9 10 Mostly Cloudy BKN048 91 74     57%   101 29.97 29.92      
Jul 24 15:53 Calm 10 Clear CLR 91 68     47%   95 29.98 29.93      
Jul 24 14:53 SE 5 10 Mostly Clear FEW050 90 70     52%   95 29.99 29.95      
Jul 24 13:53 5 10 Mostly Clear FEW046 FEW110 90 74     59%   99 30 29.96      
Jul 24 12:53 Calm 10 Clear CLR 88 72     59%   95 30.01 29.96      
Jul 24 11:53 SE 5 10 Clear CLR 85 73     68%   92 30.01 29.97      
Jul 24 10:53 Calm 10 Clear CLR 83 74     74%   89 30.02 29.98      
Jul 24 09:53 ENE 3 10 Clear CLR 79 72     79%   82 30.02 29.98      
Jul 24 08:53 S 3 10 Clear CLR 75 72     90%   76 30.03 29.98      
Jul 24 07:53 Calm 8 Clear CLR 68 68     100%     30.01 29.97      
Jul 24 07:36 Calm 6 Fog/Mist SCT003 68 67     96%     30        
Jul 24 07:31 Calm 2 Fog/Mist BKN003 67 67     100%     30        
Jul 24 06:53 Calm 0.5 Fog VV002 66 66     100%     30 29.96      
Jul 24 06:40 Calm 0.5 Fog VV002 66 66     100%     29.99        
Jul 24 06:32 Calm 1.25 Fog/Mist OVC002 65 65     100%     29.99        
Jul 24 06:28 Calm 3 Fog/Mist OVC002 65 65     100%     29.99        
Jul 24 06:08 Calm 1.75 Fog/Mist BKN003 66 66     100%     29.99        
Jul 24 05:53 Calm 4 Fog/Mist BKN003 67 67     100%     29.99 29.95      
Jul 24 05:51 Calm 2 Fog/Mist BKN003 66 66     100%     29.99        
Jul 24 05:33 Calm 0.75 Fog/Mist VV002 66 66     100%     29.98        
Jul 24 05:28 Calm 1.75 Fog/Mist SCT002 67 67     100%     29.98        
Jul 24 05:05 Calm 6 Fog/Mist FEW002 67 67     100%     29.98        
Jul 24 04:53 Calm 7 Clear CLR 67 67     100%     29.98 29.94      
Jul 24 03:53 Calm 8 Clear CLR 68 68     100%     29.96 29.93      
Jul 24 03:33 Calm 3 Fog/Mist SCT002 68 68     100%     29.96        
Jul 24 03:27 Calm 1.75 Fog/Mist SCT002 68 68     100%     29.96        
Jul 24 03:21 Calm 2 Fog/Mist BKN002 68 68     100%     29.96        
Jul 24 03:16 Calm 4 Fog/Mist SCT002 68 68     100%     29.97        
Jul 24 02:53 Calm 9 Clear CLR 69 69     100%     29.97 29.93      
Jul 24 01:53 Calm 10 Mostly Clear FEW003 69 69     100%     29.98 29.93      
Jul 24 01:51 S 3 9 Mostly Clear FEW003 70 70     100%     29.98        
Jul 24 01:42 Calm 2 Fog/Mist FEW003 68 68     100%     29.98        
Jul 24 01:32 Calm 1.75 Fog/Mist CLR 69 69     100%     29.98        
Jul 24 00:53 Calm 10 Clear CLR 70 70     100%     29.98 29.92      
Jul 23 23:53 SSE 3 10 Clear CLR 71 71     100%   73 29.98 29.93      
Jul 23 22:53 S 7 10 Clear CLR 71 71     100%   73 29.96 29.91      
Jul 23 21:53 S 8 10 Clear CLR 71 71     100%   73 29.95 29.91      
Jul 23 20:53 S 3 10 Clear CLR 72 72     100%   74 29.95 29.91      
Jul 23 19:53 SE 3 10 Clear CLR 73 71     94%   74 29.94 29.9      
Jul 23 18:53 Calm 10 Clear CLR 73 71     94%   74 29.88 29.84     0
Jul 23 17:53 Calm 10 Clear CLR 74 71     91%   75 29.91 29.87      
Jul 23 16:53 SSE 3 10 Clear CLR 73 72     96%   75 29.94 29.9      
Jul 23 16:06 WSW 5 10 Mostly Clear FEW060 74 72     94%   75 29.96        
Jul 23 15:53 SSW 6 10 Partly Cloudy FEW060 SCT085 74 72     94%   75 29.95 29.91 0 0  
Jul 23 15:04 S 15 4 Thunderstorms and Rain and Fog/Mist FEW033 BKN055 OVC090 75 71     88%   76 29.92   0    
Jul 23 14:59 SSE 15 1 Thunderstorms and Rain and Fog/Mist FEW035 BKN055 OVC080 75 71     88%   76 29.92   0    
Jul 23 14:53   0.75 Thunderstorms and Heavy Rain FEW033 BKN055 OVC080 77 70     79%   78 29.92 29.88 0    
Jul 23 14:42   1.75 Thunderstorms and Heavy Rain BKN055 BKN100 79 72     79%   82 29.92   0    
Jul 23 14:26 Calm 10 Thunderstorms SCT055 SCT100 89 72     57%   96 29.89        
Jul 23 13:53 6 10 Mostly Clear FEW050 94 73     51%   103 29.91 29.86      
Jul 23 12:53 ESE 8 10 Clear CLR 92 70     49%   98 29.94 29.88      
Jul 23 11:53 Calm 10 Clear CLR 89 74     61%   98 29.95 29.89      
Jul 23 10:53 5 10 Clear CLR 87 76     70%   98 29.96 29.91      
Jul 23 09:53 E 3 10 Clear CLR 85 76     75%   94 29.96 29.9      
Jul 23 08:53 Calm 10 Mostly Clear FEW060 82 76     82%   89 29.97 29.92      
Jul 23 07:53 Calm 10 Clear CLR 74 74     100%   76 29.97 29.92      
Jul 23 06:53 S 5 9 Mostly Cloudy FEW050 BKN060 BKN080 73 73     100%   75 29.96 29.91      
Jul 23 05:53 S 5 9 Mostly Cloudy SCT047 BKN060 72 72     100%   74 29.95 29.9      
Jul 23 04:53 SE 3 10 Mostly Clear FEW055 73 73     100%   75 29.93 29.88      
Jul 23 03:53 Calm 10 Clear CLR 72 72     100%   74 29.93 29.88      
Jul 23 02:53 S 3 10 Clear CLR 74 73     97%   76 29.92 29.86      
Jul 23 01:53 SSW 6 10 Clear CLR 75 73     94%   77 29.92 29.86      
Jul 23 00:53 SSE 3 10 Clear CLR 74 73     97%   76 29.94 29.89      
Jul 22 23:53 SSW 6 10 Clear CLR 75 74     96%   77 29.94 29.89      
Jul 22 22:53 SSW 5 10 Clear CLR 76 75     97%   78 29.93 29.88      
Jul 22 21:53 S 6 10 Clear CLR 76 75     97%   78 29.94 29.88      
Jul 22 20:53 SSE 3 10 Clear CLR 81 75     82%   87 29.91 29.86      
Jul 22 19:53 SSE 5 10 Clear CLR 86 73     65%   93 29.89 29.84      
Jul 22 18:53 S 8 10 Clear CLR 90 71     54%   96 29.9 29.85      
Jul 22 17:53 S 8 10 Mostly Clear FEW048 92 75     58%   103 29.92 29.86      
Jul 22 16:53 SSW 13 10 Clear CLR 93 71     49%   100 29.92 29.87      
Jul 22 15:53 SSW 11 10 Clear CLR 93 72     51%   101 29.92 29.87      
Jul 22 14:53 S 13 10 Mostly Clear FEW044 93 74     54%   103 29.94 29.89      
Jul 22 13:53 WSW 8 10 Clear CLR 92 75     58%   103 29.96 29.91      
Jul 22 12:53 SW 11 10 Clear CLR 91 74     57%   101 29.97 29.92      
Jul 22 11:53 SSW 11 10 Clear CLR 89 74     61%   98 29.99 29.93      
Jul 22 10:53 SSW 14 10 Clear CLR 87 72     61%   94 29.99 29.94      
Jul 22 09:53 WSW 11 10 Clear CLR 85 73     68%   92 29.99 29.94      
Jul 22 08:53 SW 11 10 Clear CLR 83 73     72%   89 30 29.95      
Jul 22 07:53 S 6 10 Clear CLR 77 74     90%   79 29.99 29.94      
Jul 22 06:53 S 5 10 Clear CLR 72 71     97%   73 29.98 29.92      
Jul 22 05:53 SSE 3 10 Clear CLR 70 70     100%     29.97 29.92      
Jul 22 04:53 Calm 10 Clear CLR 72 71     97%   73 29.96 29.91      
Jul 22 03:53 S 5 10 Clear CLR 73 71     94%   74 29.96 29.91      
Jul 22 02:53 Calm 10 Clear CLR 73 72     96%   75 29.97 29.92      
Jul 22 01:53 Calm 10 Clear CLR 73 72     96%   75 29.98 29.93      
Jul 22 00:53 Calm 7 Clear CLR 74 74     100%   76 29.99 29.94      
Jul 21 23:53 S 3 10 Clear CLR 77 75     94%   79 30 29.95      
Jul 21 22:53 Calm 10 Clear CLR 76 76     100%   78 29.99 29.94      
Jul 21 21:53 Calm 10 Clear CLR 77 75     94%   79 29.98 29.93      
Jul 21 20:53 Calm 10 Clear CLR 78 76     93%   80 29.97 29.92      
Jul 21 19:53 S 3 10 Clear CLR 86 74     67%   94 29.96 29.91      
Jul 21 18:53 SSW 8 10 Clear CLR 89 72     57%   96 29.97 29.92      
Jul 21 17:53 SW 11 10 Mostly Clear FEW049 91 72     54%   99 29.97 29.92      
Jul 21 16:53 S 10 10 Clear CLR 92 71     51%   99 29.99 29.93      
Jul 21 15:53 S 15 10 Clear CLR 92 72     52%   100 30 29.95      
Jul 21 14:53 S 14 10 Clear CLR 92 73     54%   101 30.02 29.97      
Jul 21 12:53 WSW 13 10 Mostly Clear FEW042 88 72     59%   95 30.05 30      
Jul 21 11:53 S 11 10 Clear CLR 89 74     61%   98 30.06 30.01      
Jul 21 10:53 SSW 11 10 Clear CLR 87 74     65%   95 30.07 30.01      
Jul 21 09:53 SW 11 10 Clear CLR 85 73     68%   92 30.07 30.01      
Jul 21 08:53 SSW 9 10 Clear CLR 83 75     77%   90 30.07 30.02      
Jul 21 07:53 E 3 8 Clear CLR 75 75     100%   77 30.08 30.02      
Jul 21 06:53 Calm 5 Fog/Mist CLR 71 71     100%   73 30.07 30.02      
Jul 21 05:53 Calm 5 Fog/Mist CLR 70 70     100%     30.06 30.01      
Jul 21 04:53 Calm 7 Clear CLR 72 72     100%   74 30.05 29.99      
Jul 21 03:53 S 3 6 Fog/Mist CLR 70 70     100%     30.04 29.99      
Jul 21 02:53 Calm 8 Clear CLR 72 72     100%   74 30.05 30      
Jul 21 01:53 Calm 10 Clear CLR 73 73     100%   75 30.05 30      
Jul 21 00:53 Calm 10 Partly Cloudy SCT095 74 74     100%   76 30.06 30.01      
Jul 20 23:53 Calm 10 Clear CLR 74 74     100%   76 30.07 30.02      
Jul 20 22:53 S 3 10 Clear CLR 76 75     97%   78 30.07 30.02      
Jul 20 21:53 S 6 10 Clear CLR 77 76     96%   79 30.06 30.01      
Jul 20 20:53 Calm 10 Clear CLR 79 76     90%   83 30.06 30.01      
Jul 20 19:53 S 5 10 Clear CLR 86 76     72%   96 30.05 30      
Jul 20 18:53 SW 6 10 Clear CLR 89 74     61%   98 30.05 30      
Jul 20 17:53 WSW 7 10 Mostly Clear FEW050 90 71     54%   96 30.06 30.01      
Jul 20 16:53 S 10 10 Clear CLR 92 73     54%   101 30.07 30.02      
Jul 20 15:53 3 10 Clear CLR 92 73     54%   101 30.08 30.03      
Jul 20 14:53 SSW 8 10 Mostly Clear FEW045 91 73     56%   100 30.1 30.05      
Jul 20 13:53 SSW 10 10 Clear CLR 91 75     60%   102 30.11 30.06      
Jul 20 12:53 S 8 10 Clear CLR 90 75     62%   101 30.13 30.08      
Jul 20 11:53 SW 9 10 Clear CLR 89 75     63%   99 30.15 30.1      
Jul 20 10:53 SW 10 10 Clear CLR 88 74     63%   97 30.15 30.1      
Jul 20 09:53 SSW 13 10 Clear CLR 86 76     72%   96 30.15 30.1      
Jul 20 08:53 SSW 6 9 Clear CLR 83 78     85%   93 30.16 30.11      
Jul 20 07:53 S 3 6 Fog/Mist CLR 75 74     96%   77 30.16 30.11      
Jul 20 06:53 Calm 6 Fog/Mist CLR 70 70     100%     30.16 30.11      
Jul 20 04:53 Calm 6 Fog/Mist CLR 70 70     100%     30.13 30.08      
Jul 20 03:53 Calm 6 Fog/Mist CLR 70 70     100%     30.11 30.06      
Jul 20 02:53 Calm 7 Clear CLR 70 70     100%     30.12 30.07      
Jul 20 01:53 Calm 6 Fog/Mist CLR 71 71     100%   73 30.13 30.08      
Jul 20 00:53 Calm 7 Clear CLR 72 72     100%   74 30.13 30.08      
Jul 19 23:53 Calm 9 Clear CLR 74 73     97%   76 30.13 30.08      
Jul 19 22:53 Calm 10 Clear CLR 75 74     96%   77 30.12 30.07      
Jul 19 20:53 S 3 10 Clear CLR 79 74     85%   83 30.1 30.05      
Jul 19 19:53 SSE 3 10 Clear CLR 85 71     63%   90 30.1 30.05      
Jul 19 18:53 S 9 10 Clear CLR 88 70     55%   93 30.1 30.05      
Jul 19 17:53 SW 6 10 Clear CLR 90 69     50%   95 30.1 30.05      
Jul 19 16:53 S 8 10 Clear CLR 91 71     52%   98 30.11 30.06      
Jul 19 15:53 6 10 Partly Cloudy SCT050 91 71     52%   98 30.12 30.07      
Jul 19 14:53 7 10 Mostly Clear FEW055 92 71     51%   99 30.14 30.09      
Jul 19 13:53 Calm 10 Partly Cloudy SCT050 SCT070 90 68     49%   94 30.16 30.11      
Jul 19 12:53 S 3 10 Clear CLR 89 70     53%   94 30.18 30.13      
Jul 19 11:53 3 10 Mostly Clear FEW043 88 71     57%   94 30.19 30.14      
Jul 19 10:53 SSW 7 10 Clear CLR 87 73     63%   95 30.19 30.14      
Jul 19 09:53 SSW 7 10 Clear CLR 85 75     72%   93 30.19 30.14      
Jul 19 05:53 Calm 6 Fog/Mist CLR 67 67     100%     30.16 30.11      
Jul 19 04:53 Calm 5 Fog/Mist CLR 67 67     100%     30.15 30.1      
Jul 19 03:53 Calm 6 Fog/Mist CLR 67 67     100%     30.14 30.1      
Jul 19 01:53 Calm 6 Fog/Mist CLR 68 68     100%     30.14 30.1      
Jul 19 00:53 SSW 3 8 Clear CLR 70 70     100%     30.14 30.09      
Jul 18 23:53 S 5 9 Clear CLR 71 71     100%   73 30.13 30.08      
Jul 18 22:53 S 6 10 Clear CLR 72 71     97%   73 30.12 30.07      
Jul 18 21:53 S 5 10 Clear CLR 73 71     94%   74 30.11 30.06      
Jul 18 20:53 Calm 10 Clear CLR 76 72     88%   77 30.09 30.05      
Jul 18 19:53 SE 7 10 Clear CLR 83 69     63%   87 30.08 30.04      
Jul 18 18:53 S 3 10 Clear CLR 87 68     53%   91 30.08 30.03      
Jul 18 17:53 S 5 10 Clear CLR 88 68     52%   92 30.08 30.03      
Jul 18 16:53 3 10 Clear CLR 88 65     47%   90 30.08 30.03      
Jul 18 15:53 SSE 5 10 Clear CLR 89 66     47%   92 30.08 30.03      
Jul 18 14:53 5 10 Clear CLR 88 67     50%   91 30.09 30.05      
Jul 18 13:53 3 10 Clear CLR 88 67     50%   91 30.1 30.06      
Jul 18 12:53 SE 7 10 Clear CLR 86 69     57%   90 30.12 30.07      
Jul 18 11:53 SE 6 10 Clear CLR 84 67     57%   87 30.13 30.09      
Jul 18 10:53 S 8 10 Clear CLR 84 69     61%   88 30.14 30.09      
Jul 18 09:53 SSE 5 10 Clear CLR 82 70     67%   86 30.12 30.08      
Jul 18 08:53 Calm 10 Clear CLR 76 71     85%   77 30.12 30.07      
Jul 18 05:53 Calm 7 Clear CLR 65 65     100%     30.09 30.04      
Jul 18 03:53 S 3 7 Clear CLR 67 67     100%     30.06 30.02      
Jul 18 02:53 S 3 8 Clear CLR 67 67     100%     30.06 30.01      
Jul 18 01:15 Calm 1.75 Fog/Mist CLR 68 68     100%     30.06        
Jul 18 00:53 Calm 9 Clear CLR 69 69     100%     30.06 30.01      
Jul 17 23:53 Calm 10 Clear CLR 71 70     96%   72 30.05 30      
Jul 17 22:53 S 3 10 Clear CLR 73 71     94%   74 30.04 29.99      
Jul 17 21:53 Calm 10 Clear CLR 74 72     94%   75 30.01 29.97      
Jul 17 20:53 Calm 10 Clear CLR 79 73     82%   82 30 29.95      
Jul 17 19:53 S 5 10 Clear CLR 83 71     67%   88 30 29.95      
Jul 17 18:53 SE 3 10 Clear CLR 88 67     50%   91 30 29.95      
Jul 17 17:53 SSE 3 10 Clear CLR 89 66     47%   92 30 29.96      
Jul 17 14:53 Calm 10 Clear CLR 89 66     47%   92 30.03 29.98      
Jul 17 13:53 ESE 6 10 Clear CLR 88 66     48%   90 30.04 29.99      
Jul 17 12:53 SSE 5 10 Mostly Clear FEW050 86 66     51%   88 30.05 30      
Jul 17 11:53 5 10 Clear CLR 87 67     51%   90 30.05 30.01      
Jul 17 10:53 WSW 5 10 Mostly Cloudy SCT031 BKN044 BKN050 83 71     67%   88 30.06 30.01      
Jul 17 09:53 Calm 10 Clear CLR 82 74     77%   88 30.06 30.01      
Jul 17 08:53 Calm 10 Clear CLR 76 72     88%   77 30.06 30.01      
Jul 17 07:53 Calm 6 Fog/Mist CLR 70 69     97%     30.06 30.01      
Jul 17 06:53 Calm 4 Fog/Mist CLR 67 67     100%     30.05 30.01      
Jul 17 05:53 S 5 6 Fog/Mist CLR 67 67     100%     30.03 29.98      
Jul 17 04:53 S 3 6 Fog/Mist CLR 68 68     100%     30.02 29.97      
Jul 17 03:53 S 5 6 Fog/Mist CLR 69 69     100%     30.01 29.97      
Jul 17 02:53 Calm 7 Clear CLR 69 69     100%     30.02 29.97      
Jul 17 01:55 S 6 4 Fog/Mist CLR 69 69     100%     30.02        
Jul 17 01:53 S 6 1.5 Fog/Mist FEW004 69 69     100%     30.02 29.98      
Jul 17 01:46 S 5 1 Fog/Mist VV004 70 70     100%     30.03        
Jul 17 01:43 Calm 1.75 Fog/Mist CLR 70 70     100%     30.03        
Jul 17 00:53 S 3 7 Clear CLR 72 72     100%   74 30.03 29.98      
Jul 16 23:53 SSW 3 8 Clear CLR 72 72     100%   74 30.01 29.96      
Jul 16 22:53 S 5 9 Clear CLR 74 73     97%   76 30.01 29.96      
Jul 16 21:53 Calm 9 Clear CLR 75 74     96%   77 30 29.96      
Jul 16 20:53 Calm 10 Clear CLR 78 75     90%   80 29.99 29.94      
Jul 16 19:53 Calm 10 Mostly Clear FEW045 83 74     74%   89 29.98 29.93      
Jul 16 18:53 Calm 10 Mostly Cloudy BKN050 84 72     67%   90 29.98 29.93      
Jul 16 17:53 S 6 10 Mostly Cloudy BKN039 BKN050 BKN060 87 73     63%   95 29.98 29.93      
Jul 16 16:53 W 5 10 Partly Cloudy FEW041 SCT050 87 73     63%   95 29.99 29.94      
Jul 16 15:53 SW 7 10 Mostly Cloudy SCT045 BKN055 87 73     63%   95 30 29.95      
Jul 16 14:53 S 7 10 Partly Cloudy FEW065 SCT080 87 73     63%   95 30.02 29.97      
Jul 16 13:53 ENE 6 10 Mostly Cloudy BKN050 BKN060 87 68     53%   91 30.03 29.98      
Jul 16 12:53 S 3 10 Clear CLR 87 69     55%   91 30.05 30      
Jul 16 11:53 Calm 10 Mostly Cloudy FEW039 SCT050 BKN065 87 70     57%   92 30.07 30.02      
Jul 16 10:53 Calm 10 Partly Cloudy FEW029 SCT050 83 72     70%   88 30.08 30.03      
Jul 16 09:53 Calm 10 Clear CLR 83 74     74%   89 30.08 30.03      
Jul 16 08:53 Calm 10 Clear CLR 78 74     87%   80 30.09 30.04      
Jul 16 07:53 Calm 10 Mostly Clear FEW070 72 71     97%   73 30.09 30.04      
Jul 16 06:53 Calm 8 Clear CLR 69 69     100%     30.08 30.04      
Jul 16 05:53 Calm 6 Fog/Mist CLR 69 69     100%     30.07 30.02      
Jul 16 04:53 Calm 10 Clear CLR 69 69     100%     30.06 30.01      
Jul 16 03:53 Calm 10 Clear CLR 70 70     100%     30.06 30.01      
Jul 16 02:53 Calm 10 Clear CLR 70 70     100%     30.05 30      
Jul 16 01:53 Calm 10 Clear CLR 71 70     96%   72 30.05 30.01      
Jul 16 00:53 Calm 10 Clear CLR 72 71     97%   73 30.07 30.02      
Jul 15 23:53 S 3 10 Clear CLR 72 71     97%   73 30.08 30.03      
Jul 15 22:53 S 3 10 Clear CLR 73 72     96%   75 30.08 30.03      
Jul 15 21:53 Calm 10 Clear CLR 75 72     90%   76 30.07 30.03      
Jul 15 20:53 NNW 3 10 Clear CLR 77 72     84%   78 30.06 30.01      
Jul 15 19:53 Calm 10 Clear CLR 85 70     61%   89 30.04 29.99      
Jul 15 18:53 ENE 3 10 Clear CLR 87 71     59%   93 30.02 29.98      
Jul 15 17:53 6 10 Clear CLR 89 72     57%   96 30.02 29.97      
Jul 15 16:53 ENE 7 10 Clear CLR 90 72     56%   97 30.04 30      
Jul 15 15:53 5 10 Clear CLR 89 72     57%   96 30.07 30.02      
Jul 15 14:53 ENE 6 10 Clear CLR 90 70     52%   95 30.09 30.04      
Jul 15 13:53 5 10 Mostly Clear FEW042 89 72     57%   96 30.11 30.06      
Jul 15 12:53 3 10 Partly Cloudy SCT036 SCT060 87 71     59%   93 30.14 30.09      
Jul 15 11:53 3 10 Partly Cloudy SCT032 SCT040 86 72     63%   92 30.15 30.1      
Jul 15 10:53 3 10 Mostly Clear FEW024 83 71     67%   88 30.16 30.11      
Jul 15 09:53 N 3 10 Clear CLR 81 73     77%   86 30.16 30.11      
Jul 15 08:53 Calm 10 Clear CLR 77 72     84%   78 30.16 30.12      
Jul 15 07:53 SE 3 10 Clear CLR 71 70     96%   72 30.16 30.11      
Jul 15 06:53 Calm 10 Clear CLR 69 69     100%     30.15 30.11      
Jul 15 05:53 Calm 10 Clear CLR 68 68     100%     30.14 30.1      
Jul 15 04:53 Calm 9 Mostly Clear FEW002 69 69     100%     30.14 30.1      
Jul 15 04:36 Calm 10 Mostly Clear FEW001 69 69     100%     30.14        
Jul 15 03:53 Calm 10 Clear CLR 69 69     100%     30.14 30.09      
Jul 15 02:53 SSW 3 10 Clear CLR 69 69     100%     30.15 30.1      
Jul 15 01:53 Calm 10 Clear CLR 70 70     100%     30.14 30.1      
Jul 15 00:53 Calm 10 Clear CLR 71 71     100%   73 30.14 30.1      
Jul 14 23:53 Calm 10 Partly Cloudy SCT080 72 72     100%   74 30.14 30.11      
Jul 14 22:53 S 3 10 Mostly Cloudy BKN095 73 72     96%   75 30.13 30.09      
Jul 14 21:53 Calm 10 Mostly Cloudy BKN120 75 73     94%   77 30.13 30.08      
Jul 14 20:53 S 3 10 Partly Cloudy SCT095 76 74     94%   78 30.12 30.07      
Jul 14 19:53 Calm 10 Cloudy OVC110 80 74     82%   85 30.12 30.07      
Jul 14 18:53 SE 3 10 Cloudy FEW065 BKN085 OVC110 80 73     79%   84 30.11 30.07      
Jul 14 17:53 Calm 10 Cloudy FEW050 FEW070 OVC100 82 72     72%   87 30.12 30.07      
Jul 14 16:53 Calm 10 Clear CLR 82 68     63%   85 30.14 30.09      
Jul 14 15:53 WNW 6 10 Partly Cloudy SCT110 82 68     63%   85 30.16 30.11      
Jul 14 14:53 Calm 10 Clear CLR 84 71     65%   89 30.15 30.11      
Jul 14 13:53 5 10 Mostly Clear FEW120 81 72     74%   85 30.16 30.12      
Jul 14 12:53 Calm 10 Clear CLR 79 70     74%   82 30.18 30.13      
Jul 14 11:53 NNW 15 10 Clear CLR 76 69     79%   77 30.21 30.16      
Jul 14 10:53 N 6 10 Cloudy FEW028 BKN041 OVC050 79 70     74%   82 30.22 30.17      
Jul 14 09:53 6 10 Cloudy FEW017 BKN041 OVC049 80 73     79%   84 30.2 30.16      
Jul 14 09:30 N 7 10 Mostly Cloudy BKN017 BKN046 79 73     82%   82 30.19        
Jul 14 08:53 NE 7 10 Clear CLR 78 73     85%   80 30.19 30.14      
Jul 14 07:53 Calm 10 Cloudy OVC044 74 73     97%   76 30.17 30.13      
Jul 14 06:53 Calm 9 Mostly Clear FEW040 72 71     97%   73 30.15 30.11      
Jul 14 05:53 Calm 10 Mostly Clear FEW044 71 71     100%   73 30.15 30.1      
Jul 14 04:53 Calm 10 Mostly Clear FEW040 72 71     97%   73 30.14 30.09      
Jul 14 03:53 ESE 3 10 Partly Cloudy SCT047 74 71     91%   75 30.15 30.1      
Jul 14 02:53 S 3 10 Clear CLR 72 71     97%   73 30.14 30.09      
Jul 14 01:53 Calm 10 Clear CLR 73 72     96%   75 30.13 30.08      
Jul 14 00:53 SSW 6 10 Clear CLR 75 72     90%   76 30.13 30.08      
Jul 13 23:53 Calm 10 Clear CLR 75 73     94%   77 30.14 30.09      
Jul 13 22:53 S 5 10 Clear CLR 75 74     96%   77 30.14 30.09      
Jul 13 21:53 Calm 10 Clear CLR 76 74     94%   78 30.12 30.08      
Jul 13 20:53 Calm 10 Clear CLR 79 74     85%   83 30.1 30.05      
Jul 13 19:53 S 6 10 Clear CLR 85 73     68%   92 30.07 30.02      
Jul 13 18:53 SSW 9 10 Mostly Clear FEW045 88 73     61%   96 30.05 30      
Jul 13 17:53 S 9 10 Clear CLR 88 74     63%   97 30.07 30.02      
Jul 13 16:53 S 8 10 Clear CLR 89 75     63%   99 30.09 30.04      
Jul 13 15:53 S 9 10 Clear CLR 87 74     65%   95 30.11 30.06      
Jul 13 14:53 7 10 Clear CLR 89 72     57%   96 30.11 30.06      
Jul 13 13:53 SW 6 10 Clear CLR 88 72     59%   95 30.13 30.08      
Jul 13 12:53 W 6 10 Partly Cloudy FEW036 SCT047 SCT055 86 73     65%   93 30.15 30.1      
Jul 13 11:53 SSW 8 10 Mostly Clear FEW030 87 75     68%   97 30.16 30.11      
Jul 13 10:53 SW 10 10 Clear CLR 85 74     70%   92 30.16 30.11      
Jul 13 07:53 S 7 10 Clear CLR 78 74     87%   80 30.14 30.09      
Jul 13 06:53 Calm 7 Mostly Clear FEW110 73 72     96%   75 30.13 30.08      
Jul 13 05:53 Calm 10 Clear CLR 72 72     100%   74 30.12 30.07      
Jul 13 04:53 S 3 10 Mostly Cloudy BKN110 72 71     97%   73 30.12 30.07      
Jul 13 03:53 S 3 10 Clear CLR 72 71     97%   73 30.1 30.05      
Jul 13 02:53 SSW 3 10 Clear CLR 73 71     94%   74 30.09 30.04      
Jul 13 01:53 S 3 10 Clear CLR 73 71     94%   74 30.09 30.04      
Jul 13 00:53 Calm 10 Clear CLR 73 72     96%   75 30.09 30.04      
Jul 12 23:53 Calm 10 Clear CLR 74 71     91%   75 30.08 30.03      
Jul 12 22:53 Calm 10 Clear CLR 76 71     85%   77 30.08 30.03      
Jul 12 21:53 S 5 10 Clear CLR 78 71     79%   79 30.06 30.01      
Jul 12 20:53 S 10 10 Mostly Clear FEW043 81 72     74%   85 30.05 30      
Jul 12 19:53 S 6 10 Clear CLR 85 74     70%   92 30.05 30      
Jul 12 18:53 SSW 9 10 Clear CLR 88 72     59%   95 30.04 29.99      
Jul 12 17:53 SSW 9 10 Clear CLR 89 70     53%   94 30.04 29.98      
Jul 12 15:53 SSW 10 10 Mostly Clear FEW045 89 73     59%   97 30.05 29.99      
Jul 12 14:53 S 9 10 Clear CLR 90 74     59%   99 30.06 30.01      
Jul 11 20:53 Calm 10 Clear CLR 82 73     74%   87 29.97 29.92      
Jul 11 19:53 S 6 10 Clear CLR 84 74     72%   91 29.97 29.92      
Jul 10 14:53 S 13 10 Mostly Cloudy BKN035 86 74     67%   94 30.02 29.97      
Jul 10 13:53 SSW 16 10 Mostly Clear FEW037 86 73     65%   93 30.03 29.98      
Jul 10 12:53 S 13 10 Mostly Clear FEW037 86 72     63%   92 30.04 29.99      
Jul 10 11:53 S 14 10 Clear CLR 84 70     63%   88 30.05 30      
Jul 10 10:53 S 15 10 Clear CLR 82 69     65%   85 30.05 30      
Jul 10 09:53 SSE 10 10 Clear CLR 80 71     74%   84 30.05 30.01      
Jul 10 07:53 SSW 5 10 Clear CLR 74 70     87%   75 30.04 30      
Jul 10 06:53 S 5 10 Clear CLR 69 68     96%     30.04 29.99      
Jul 10 05:53 SSE 3 10 Clear CLR 70 67     90%     30.02 29.98      
Jul 10 04:53 Calm 10 Clear CLR 69 67     93%     30.02 29.97      
Jul 10 03:53 Calm 10 Clear CLR 71 68     90%   72 30.01 29.97      
Jul 10 02:53 Calm 10 Clear CLR 70 68     93%     30.02 29.97      
Jul 10 01:53 Calm 10 Clear CLR 73 68     84%   74 30.03 29.98      
Jul 10 00:53 S 6 10 Clear CLR 73 68     84%   74 30.04 29.99      
Jul 09 23:53 S 3 10 Clear CLR 73 69     87%   74 30.05 30      
Jul 09 22:53 SSE 3 10 Clear CLR 72 70     93%   73 30.05 30      
Jul 09 21:53 Calm 10 Clear CLR 75 70     84%   76 30.04 29.99      
Jul 09 19:53 SE 5 10 Clear CLR 82 70     67%   86 30.02 29.98      
Jul 09 17:53 7 10 Clear CLR 85 70     61%   89 30.02 29.98      
Jul 09 15:53 S 13 10 Clear CLR 85 69     59%   89 30.07 30.03      
Jul 09 13:53 S 13 10 Clear CLR 85 69     59%   89 30.1 30.05      
Jul 09 12:53 S 13 10 Clear CLR 84 70     63%   88 30.11 30.06      
Jul 09 11:53 S 10 10 Clear CLR 83 70     65%   87 30.12 30.07      
Jul 09 09:53 S 10 10 Clear CLR 81 71     72%   85 30.13 30.08      
Jul 09 08:53 Calm 10 Clear CLR 76 72     88%   77 30.11 30.07      
Jul 09 08:14 Calm 7 Patchy Fog CLR 69 69     100%     30.11        
Jul 09 06:53 Calm 0.25 Fog VV002 65 65     100%     30.11 30.06      
Jul 09 05:53 Calm 0.25 Fog VV002 65 65     100%     30.1 30.06      
Jul 09 04:53 Calm 0.25 Fog VV002 66 66     100%     30.1 30.06      
Jul 09 03:53 Calm 0.25 Fog VV002 67 67     100%     30.11 30.06      
Jul 09 02:53 S 3 0.25 Fog VV002 68 68     100%     30.11 30.06      
Jul 09 02:05 Calm 0.5 Fog VV002 68 68     100%     30.12        
Jul 09 01:55 Calm 1.75 Fog/Mist BKN002 68 68     100%     30.12        
Jul 09 01:53 Calm 3 Fog/Mist BKN002 68 68     100%     30.12 30.08      
Jul 09 01:19 S 3 5 Fog/Mist SCT002 68 68     100%     30.13        
Jul 09 01:08 Calm 3 Fog/Mist CLR 68 68     100%     30.12        
Jul 09 00:53 Calm 1.75 Fog/Mist CLR 69 69     100%     30.13 30.09      
Jul 09 00:49 Calm 2.5 Fog/Mist CLR 70 70     100%     30.13        
Jul 08 22:53 Calm 10 Clear CLR 71 70     96%   72 30.12 30.08      
Jul 08 21:53 Calm 10 Clear CLR 73 71     94%   74 30.1 30.06      
Jul 08 20:53 SW 7 10 Clear CLR 77 70     79%   78 30.08 30.04      
Jul 08 19:53 WSW 8 10 Mostly Clear FEW045 82 71     69%   86 30.06 30.01      
Jul 08 18:53 Calm 10 Clear CLR 86 71     61%   92 30.04 30      
Jul 08 15:53 Calm 10 Clear CLR 84 70     63%   88 30.07 30.03      
Jul 08 14:53 E 3 10 Clear CLR 82 69     65%   85 30.08 30.04      
Jul 08 13:53 Calm 10 Clear CLR 81 68     65%   84 30.11 30.06      
Jul 08 12:53 SSW 6 10 Clear CLR 81 70     69%   84 30.12 30.08      
Jul 08 11:53 3 10 Mostly Clear FEW021 80 72     76%   84 30.14 30.1      
Jul 08 10:53 W 9 10 Cloudy BKN021 BKN050 OVC055 77 71     82%   78 30.15 30.11      
Jul 08 09:53 3 10 Partly Cloudy SCT055 78 72     82%   79 30.13 30.09      
Jul 08 08:53 E 5 10 Clear CLR 73 69     87%   74 30.1 30.05      
Jul 08 07:53 Calm 10 Mostly Cloudy BKN050 71 68     90%   72 30.09 30.05      
Jul 08 06:53 Calm 10 Clear CLR 69 67     93%     30.09 30.05     0
Jul 08 06:42 Calm 10 Mostly Clear FEW060 68 67     96%     30.09        
Jul 08 06:27 S 6 10 Mostly Cloudy SCT055 BKN075 68 67     96%     30.1        
Jul 08 06:06 S 9 10 Mostly Cloudy BKN055 67 67     100%     30.1        
Jul 08 05:53 S 9 10 Mostly Clear FEW060 67 66     97%     30.09 30.05 0    
Jul 08 05:49 SSW 9 10 Mostly Clear FEW060 66 66     100%     30.09   0    
Jul 08 04:53 Calm 10 Clear CLR 67 66     97%     30.07 30.02 0    
Notice The following observation data may not be complete
Jul 08 04:07   10 Light Rain BKN100 BKN120          %         0    
Jul 08 03:53 Calm 10 Thunderstorms and Rain FEW041 SCT070 BKN110 67 65     93%     30.05 30 0 0  
Jul 08 03:27 N 6 2 Thunderstorms and Heavy Rain SCT044 BKN070 OVC095 68 63     84%     30.07   0    
Jul 08 03:19 N 16 3 Thunderstorms and Heavy Rain SCT044 BKN080 OVC110 69 64     84%     30.08   0    
Jul 08 03:02 6 6 Rain and Fog/Mist FEW036 BKN075 OVC100 67 64     90%     30.08   0    
Jul 08 02:53 N 8 7 Thunderstorms and Rain SCT036 BKN060 OVC110 68 64     87%     30.09 30.04 0    
Jul 08 02:41 N 14 10 Thunderstorms and Rain FEW034 BKN055 OVC070 71 66     84%   72 30.11   0    
Jul 08 01:53 ENE 8 10 Mostly Cloudy BKN050 BKN060 75 72     90%   76 30.05 30      
Jul 08 00:53 Calm 10 Mostly Cloudy BKN050 BKN110 76 73     91%   77 30.06 30.01 0   0
Jul 07 23:53 S 6 10 Light Rain FEW060 SCT100 75 75     100%   77 30.05 29.99 0    
Jul 07 22:53 SSW 3 10 Clear CLR 76 75     97%   78 30.05 30      
Jul 07 21:53 S 3 10 Clear CLR 77 75     94%   79 30.04 29.99      
Jul 07 19:53 SW 3 10 Clear CLR 83 76     79%   91 30.04 29.99      
Jul 07 18:53 WSW 5 10 Clear CLR 85 74     70%   92 30.02 29.98      
Jul 07 17:53 W 8 10 Clear CLR 89 72     57%   96 30.03 29.98      
Jul 07 14:53 SW 9 10 Mostly Clear FEW044 89 73     59%   97 30.07 30.02      
Jul 07 13:53 W 9 10 Clear CLR 88 73     61%   96 30.08 30.03      
Jul 07 12:53 WSW 10 10 Clear CLR 88 74     63%   97 30.1 30.05      
Jul 07 11:53 WSW 10 10 Mostly Clear FEW034 86 74     67%   94 30.11 30.07      
Jul 07 10:53 SSW 7 10 Clear CLR 85 74     70%   92 30.12 30.07      
Jul 07 09:53 SW 7 10 Clear CLR 82 73     74%   87 30.12 30.07      
Jul 07 07:53 S 5 10 Clear CLR 69 68     96%     30.12 30.08      
Jul 07 06:53 S 3 10 Clear CLR 65 65     100%     30.11 30.06      
Jul 07 05:53 S 3 10 Clear CLR 64 64     100%     30.1 30.06      
Jul 07 04:53 S 3 9 Clear CLR 65 65     100%     30.1 30.06      
Jul 07 03:53 Calm 5 Fog/Mist CLR 66 66     100%     30.1 30.05      
Jul 07 02:53 SSE 3 10 Clear CLR 67 67     100%     30.1 30.06      
Jul 07 01:53 Calm 9 Clear CLR 67 67     100%     30.11 30.06      
Jul 07 00:53 S 3 10 Clear CLR 68 68     100%     30.12 30.08      
Jul 06 23:53 S 5 10 Clear CLR 69 69     100%     30.12 30.08      
Jul 06 22:53 S 5 10 Clear CLR 70 70     100%     30.11 30.07      
Jul 06 21:53 Calm 10 Clear CLR 73 72     96%   75 30.09 30.05      
Jul 06 20:53 Calm 10 Clear CLR 74 72     94%   75 30.08 30.03      
Jul 06 19:53 ENE 3 10 Mostly Clear FEW043 81 72     74%   85 30.07 30.03      
Jul 06 18:53 NNW 7 10 Mostly Cloudy SCT046 BKN055 84 69     61%   88 30.08 30.03      
Jul 06 17:53 NW 7 10 Mostly Clear FEW049 85 69     59%   89 30.08 30.03      
Jul 06 16:53 N 8 10 Partly Cloudy SCT046 86 69     57%   90 30.08 30.03      
Jul 06 15:53 NNW 8 10 Mostly Clear FEW043 FEW060 86 71     61%   92 30.09 30.05      
Jul 06 14:53 NNW 5 10 Mostly Clear FEW040 FEW050 85 71     63%   90 30.1 30.06      
Jul 06 13:53 WNW 9 10 Mostly Clear FEW047 85 70     61%   89 30.12 30.08      
Jul 05 17:53 WNW 10 10 Mostly Clear FEW032 81 70     69%   84 30.02 29.98      
Jul 05 16:53 W 11 10 Partly Cloudy FEW029 SCT070 81 71     72%   85 30.02 29.98      
Jul 05 15:53 WNW 9 10 Mostly Cloudy FEW030 BKN042 BKN055 80 70     71%   83 30.04 30      
Jul 05 14:53 W 11 10 Mostly Cloudy SCT031 SCT036 BKN044 81 71     72%   85 30.05 30.01      
Jul 05 13:53 W 8 10 Mostly Cloudy SCT031 SCT035 BKN044 80 69     69%   83 30.04 30.01      
Jul 05 13:31 W 7 10 Mostly Cloudy FEW027 SCT034 BKN043 79 70     74%   82 30.05        
Jul 05 12:53 WNW 7 10 Mostly Cloudy BKN026 BKN033 77 69     77%   78 30.05 30.01      
Jul 05 12:35 WSW 6 10 Partly Cloudy SCT028 SCT033 77 68     74%   78 30.05        
Jul 05 12:28 W 9 10 Mostly Cloudy BKN028 77 68     74%   78 30.05        
Jul 05 12:10 SW 8 10 Partly Cloudy FEW021 SCT029 77 69     77%   78 30.05        
Jul 05 11:53 WSW 9 10 Mostly Cloudy FEW020 BKN029 76 69     79%   77 30.05 30.01      
Jul 05 10:53 W 6 10 Cloudy FEW017 BKN023 OVC028 74 69     85%   75 30.06 30.03      
Notice The following observation data may not be complete
Jul 05 10:14   10 Mostly Cloudy FEW012 BKN025          %              
Jul 05 09:53 W 9 10 Partly Cloudy FEW011 SCT020 73 70     90%   74 30.07 30.03      
Jul 05 09:40 W 7 10 Partly Cloudy FEW011 SCT019 73 71     94%   74 30.07        
Jul 05 09:31 W 7 10 Mostly Cloudy SCT009 BKN015 73 70     90%   74 30.07        
Jul 05 09:04 W 3 10 Mostly Clear FEW008 72 70     93%   73 30.06        
Jul 05 08:53 W 3 10 Clear CLR 72 70     93%   73 30.06 30.02      
Jul 05 08:01 Calm 10 Mostly Clear FEW006 70 69     97%     30.03        
Jul 05 07:53 Calm 10 Clear CLR 70 69     97%     30.03 30      
Jul 05 06:53 S 7 8 Clear CLR 67 67     100%     30.01 29.98      
Jul 05 05:53 S 7 10 Partly Cloudy SCT011 66 66     100%     30.01 29.98      
Jul 05 05:05 Calm 8 Mostly Cloudy BKN011 BKN020 67 67     100%     29.99        
Jul 05 04:53 Calm 8 Partly Cloudy SCT011 68 68     100%     29.99 29.95      
Jul 05 04:30 Calm 10 Partly Cloudy SCT019 68 68     100%     30        
Jul 05 04:07 SSW 5 10 Mostly Cloudy BKN018 69 68     96%     30        
Jul 05 03:53 S 5 8 Mostly Clear FEW018 67 67     100%     29.99 29.95      
Jul 05 02:53 Calm 7 Partly Cloudy FEW016 FEW035 SCT044 69 68     96%     29.98 29.94      
Jul 05 00:53 S 6 4 Fog/Mist CLR 68 68     100%     30.01 29.97     0
Jul 05 00:00 SSW 3 3 Fog/Mist FEW002 69 69     100%     30.01        
Jul 04 23:53 SSW 3 2.5 Fog/Mist SCT002 68 68     100%     30.01 29.97      
Jul 04 23:42 Calm 1.75 Fog/Mist BKN002 69 69     100%     30.01        
Jul 04 23:32 Calm 2 Fog/Mist SCT002 69 69     100%     30.01        
Jul 04 23:25 Calm 1 Fog/Mist VV002 69 69     100%     30.01        
Jul 04 23:17 Calm 2 Fog/Mist FEW003 69 69     100%     30.01        
Jul 04 22:58 Calm 1.75 Fog/Mist CLR 69 69     100%     30.01        
Jul 04 22:53 Calm 3 Fog/Mist CLR 69 69     100%     30 29.96      
Jul 04 21:53 ESE 3 10 Mostly Cloudy FEW031 BKN042 BKN060 71 71     100%   73 29.99 29.96 0 0  
Jul 04 21:07 Calm 10 Light Rain SCT028 BKN041 OVC075 72 71     97%   73 29.98   0    
Jul 04 20:53 Calm 10 Cloudy BKN025 OVC070 72 71     97%   73 29.98 29.94      
Jul 04 20:36 Calm 10 Cloudy BKN025 BKN031 OVC060 72 71     97%   73 29.98        
Jul 04 19:53 Calm 10 Cloudy SCT016 BKN035 OVC044 73 71     94%   74 29.97 29.93 0    
Jul 04 18:53 Calm 10 Mostly Cloudy SCT029 BKN040 BKN075 73 70     90%   74 29.96 29.92 0   0
Jul 04 18:05 W 3 10 Cloudy BKN060 OVC070 73 70     90%   74 29.97   0    
Jul 04 17:53 3 2.5 Rain and Fog/Mist FEW023 BKN065 OVC080 73 71     94%   74 29.97 29.93 0    
Jul 04 16:53 W 9 10 Cloudy FEW028 BKN060 OVC075 76 69     79%   77 29.98 29.94      
Jul 04 15:53 WSW 10 10 Cloudy OVC060 79 70     74%   82 29.97 29.93 0 0  
Jul 04 14:53 WSW 7 10 Cloudy FEW030 BKN055 OVC070 78 70     76%   79 29.98 29.93 0    
Jul 04 13:53 S 13 10 Mostly Cloudy FEW028 BKN050 80 69     69%   83 29.98 29.93      
Jul 04 12:53 SSW 9 10 Cloudy FEW025 FEW060 OVC100 77 69     77%   78 29.99 29.95     0
Jul 04 11:53 S 5 10 Cloudy SCT024 BKN048 OVC085 77 71     82%   78 30.01 29.96      
Jul 04 10:53 5 10 Clear CLR 77 73     88%   79 30 29.96      
Jul 04 09:53 E 6 10 Clear CLR 73 71     94%   74 29.98 29.94 0 0  
Jul 04 08:53 Calm 10 Light Rain SCT080 BKN100 OVC110 71 70     96%   72 30.01 29.97 0    
Jul 04 07:53 Calm 10 Cloudy FEW080 OVC100 70 69     97%     30.01 29.97 0    
Jul 04 06:53 ENE 3 10 Mostly Clear FEW008 69 68     96%     29.98 29.94     0
Jul 04 06:34 E 5 10 Partly Cloudy SCT008 69 68     96%     29.97        
Jul 04 06:27 Calm 10 Mostly Cloudy BKN008 69 68     96%     29.97        
Jul 04 06:15 Calm 10 Partly Cloudy SCT008 69 68     96%     29.97        
Jul 04 05:53 E 9 10 Clear CLR 68 68     100%     29.95 29.91 0    
Jul 04 05:45 ENE 5 10 Light Rain FEW005 68 68     100%     29.96   0    
Jul 04 04:53 NE 3 10 Light Rain FEW075 SCT095 BKN120 68 68     100%     29.98 29.94 0    
Jul 04 04:21 ESE 3 4 Rain and Fog/Mist FEW038 BKN080 OVC100 68 68     100%     30   0    
Jul 04 04:04 S 5 3 Rain and Fog/Mist SCT044 BKN080 OVC100 68 68     100%     30   0    
Jul 04 04:00 3 1.75 Heavy Rain and Fog/Mist FEW006 BKN041 OVC070 68 68     100%     30   0    
Jul 04 03:51 S 8 2.5 Heavy Rain and Fog/Mist FEW006 SCT050 OVC070 69 68     96%     30 29.96 0 0  
Jul 04 03:50 S 9 2.5 Heavy Rain and Fog/Mist FEW006 SCT050 OVC070 70 68     94%     30   0    
Jul 04 03:30 WSW 10 6 Thunderstorms and Heavy Rain and Fog/Mist FEW022 BKN039 OVC080 70 68     93%     30   0    
Jul 04 03:04 Calm 10 Cloudy BKN040 BKN070 OVC100 74 72     94%   75 29.98        
Jul 04 02:53 SE 6 10 Cloudy BKN042 BKN050 OVC100 74 72     94%   75 29.98 29.93      
Jul 04 00:53 Calm 10 Clear CLR 73 72     96%   75 30 29.95     0
Jul 03 23:53 SSE 3 10 Clear CLR 73 72     96%   75 30.01 29.97 0    
Jul 03 22:53 Calm 10 Light Rain FEW070 SCT090 74 73     97%   76 30.01 29.97 0    
Jul 03 21:53 S 3 10 Mostly Clear FEW040 73 72     96%   75 30.02 29.98      
Jul 03 20:53 Calm 10 Clear CLR 75 73     94%   77 30 29.96      
Jul 03 19:53 Calm 10 Clear CLR 79 72     79%   82 29.99 29.95      
Jul 03 18:53 SW 5 10 Clear CLR 82 72     72%   87 29.99 29.95      
Jul 03 17:53 WSW 7 10 Partly Cloudy SCT033 83 73     72%   89 30 29.96      
Jul 03 16:53 S 9 10 Clear CLR 84 73     70%   90 30.01 29.97      
Jul 03 15:53 WSW 6 10 Partly Cloudy SCT034 84 72     67%   90 30.03 29.98      
Jul 03 14:53 5 10 Mostly Clear FEW029 83 71     67%   88 30.04 29.99      
Jul 03 14:24 Calm 10 Partly Cloudy FEW029 SCT035 82 72     72%   87 30.04        
Jul 03 12:53 5 10 Clear CLR 79 70     74%   82 30.06 30.02      
Jul 03 12:37 3 10 Partly Cloudy SCT019 78 70     76%   79 30.06        
Jul 03 12:20 Calm 10 Mostly Cloudy BKN019 77 69     77%   78 30.07        
Jul 03 11:53 5 10 Partly Cloudy SCT016 76 69     79%   77 30.08 30.04      
Jul 03 11:00 WSW 8 10 Cloudy OVC016 72 68     87%   73 30.09        
Jul 03 10:53 WSW 3 10 Cloudy BKN013 OVC016 72 68     87%   73 30.09 30.05      
Jul 03 09:53 SW 5 10 Cloudy BKN013 OVC019 71 68     90%   72 30.08 30.05      
Jul 03 08:53 N 3 10 Cloudy OVC014 70 68     93%     30.07 30.03      
Jul 03 07:53 W 6 10 Cloudy BKN011 OVC021 69 68     96%     30.07 30.03      
Jul 03 07:34   10 Cloudy BKN013 OVC022 69 68     96%     30.06        
Jul 03 06:53 SSW 5 10 Cloudy OVC015 68 68     100%     30.05 30.01     0
Jul 03 05:53 Calm 10 Cloudy SCT018 OVC025 68 68     100%     30.03 29.99      
Jul 03 05:29 Calm 10 Cloudy OVC028 68 68     100%     30.02        
Jul 03 04:53 Calm 10 Cloudy OVC036 68 67     96%     30.02 29.98      
Jul 03 03:53 Calm 10 Partly Cloudy SCT120 67 67     100%     30.01 29.97   0  
Jul 03 02:53 Calm 10 Mostly Cloudy FEW033 BKN120 68 67     96%     30.02 29.97      
Jul 03 01:53 E 6 10 Mostly Clear FEW120 69 65     87%     30.01 29.96 0    
Jul 03 00:53 Calm 10 Light Rain BKN085 67 67     100%     30.02 29.98 0   0
Jul 02 23:53 Calm 10 Light Rain FEW080 OVC110 68 66     93%     30.06 30.02 0    
Jul 02 22:53 E 3 10 Light Rain FEW100 SCT120 67 66     97%     30.06 30.01 0    
Jul 02 21:58 5 9 Light Rain SCT011 BKN035 BKN110 69 67     93%     30.12   0    
Jul 02 21:53 N 5 7 Rain BKN011 BKN024 BKN110 69 68     96%     30.13 30.09 0 0  
Jul 02 21:48 NNE 3 6 Rain and Fog/Mist FEW008 BKN011 OVC017 70 68     94%     30.14   0    
Jul 02 21:39 Calm 4 Rain and Fog/Mist BKN008 OVC013 69 68     96%     30.15   0    
Jul 02 21:24 ENE 3 5 Rain and Fog/Mist SCT008 BKN013 BKN110 69 68     96%     30.16   0    
Jul 02 21:19 Calm 6 Rain and Fog/Mist BKN008 BKN100 69 68     96%     30.16   0    
Jul 02 21:02 W 9 9 Light Rain SCT100 SCT120 69 68     96%     30.1   0    
Jul 02 20:53 SW 13 6 Rain and Fog/Mist FEW100 SCT120 70 67     90%     30.09 30.06 0    
Jul 02 20:39 SSW 9 9 Light Rain FEW090 SCT110 71 69     93%   72 30.07   0    
Jul 02 20:06 SW 10 10 Light Rain SCT026 BKN047 OVC100 74 70     87%   75 30.05   0    
Jul 02 19:53   10 Light Rain SCT024 BKN060 OVC090 77 72     84%   78 30.06 30.02 0    
Jul 02 19:25 SSW 3 10 Light Rain SCT070 BKN085 79 75     88%   83 30.04   0    
Jul 02 18:53 S 5 10 Mostly Cloudy BKN080 81 75     82%   87 30.05 30.01      
Jul 02 17:53 SSW 6 10 Clear CLR 83 74     74%   89 30.03 29.99      
Jul 02 16:53 SSE 8 10 Mostly Clear FEW035 86 74     67%   94 30.04 30      
Jul 02 15:53 SSE 6 10 Mostly Cloudy FEW041 SCT050 BKN065 85 72     65%   91 30.06 30.02      
Jul 02 14:53 SE 5 10 Clear CLR 85 72     65%   91 30.09 30.05      
Jul 02 13:53 Calm 10 Clear CLR 84 71     65%   89 30.12 30.08      
Jul 02 12:53 SE 6 10 Clear CLR 84 71     65%   89 30.13 30.09      
Jul 02 11:53 S 7 10 Clear CLR 83 72     70%   88 30.15 30.1      
Jul 02 10:53 WSW 10 10 Partly Cloudy SCT029 82 71     69%   86 30.16 30.11      
Jul 02 09:53 5 10 Partly Cloudy SCT018 80 72     76%   84 30.16 30.11      
Jul 02 08:53 Calm 10 Clear CLR 74 71     91%   75 30.15 30.11      
Jul 02 07:53 Calm 10 Clear CLR 69 69     100%     30.15 30.11      
Jul 02 07:10 S 5 5 Patchy Fog CLR 66 66     100%     30.15        
Jul 02 06:53 S 6 2 Fog/Mist SCT002 65 65     100%     30.14 30.1      
Jul 02 05:53 S 5 0.25 Fog VV002 65 65     100%     30.12 30.07      
Jul 02 04:53 S 3 0.25 Fog VV002 65 65     100%     30.1 30.06      
Jul 02 03:53 S 3 0.25 Fog VV002 66 66     100%     30.09 30.05      
Jul 02 02:53 S 3 0.25 Fog VV002 66 66     100%     30.09 30.05      
Jul 02 02:34 S 3 0.5 Fog VV002 67 67     100%     30.1        
Jul 02 02:27 S 3 1 Fog/Mist VV002 67 67     100%     30.1        
Jul 02 02:17 S 3 2.5 Fog/Mist OVC002 67 67     100%     30.1        
Jul 02 02:04 Calm 1.25 Fog/Mist OVC002 67 67     100%     30.1        
Jul 02 01:53 S 3 0.5 Fog VV002 67 67     100%     30.1 30.06      
Jul 02 01:45 S 3 1.75 Fog/Mist BKN002 67 67     100%     30.1        
Jul 02 01:34 Calm 6 Fog/Mist BKN002 67 67     100%     30.11        
Jul 02 01:27 Calm 2 Fog/Mist BKN002 67 67     100%     30.11        
Jul 02 01:09 Calm 0.75 Fog/Mist VV002 68 68     100%     30.11        
Jul 02 01:05 Calm 1.75 Fog/Mist FEW003 68 68     100%     30.11        
Jul 02 00:53 Calm 5 Fog/Mist FEW002 69 69     100%     30.11 30.07      
Jul 01 23:53 Calm 6 Fog/Mist CLR 70 70     100%     30.11 30.07      
Jul 01 22:53 Calm 9 Clear CLR 71 71     100%   73 30.12 30.08      
Jul 01 21:53 Calm 10 Mostly Cloudy SCT039 BKN050 73 71     94%   74 30.1 30.06      
Jul 01 20:53 Calm 10 Clear CLR 75 72     90%   76 30.09 30.05      
Jul 01 19:53 Calm 10 Partly Cloudy SCT037 SCT046 81 71     72%   85 30.07 30.02      
Jul 01 18:53 W 5 10 Mostly Clear FEW036 83 70     65%   87 30.05 30.01      
Jul 01 17:53 NNW 3 10 Mostly Clear FEW036 84 67     57%   87 30.06 30.01      
Jul 01 16:53 WNW 6 10 Clear CLR 84 71     65%   89 30.06 30.02      
Jul 01 16:00 6 10 Clear CLR 84 71     65%   89 30.07        
Jul 01 15:53 NNW 3 10 Mostly Cloudy SCT024 BKN029 BKN085 84 71     65%   89 30.08 30.03      
Jul 01 14:53 3 10 Cloudy BKN024 OVC085 81 72     74%   85 30.09 30.06      
Jul 01 14:00 Calm 10 Cloudy BKN024 OVC085 79 71     77%   82 30.1        
Jul 01 13:53 3 10 Cloudy SCT019 BKN080 OVC100 80 72     76%   84 30.1 30.06      
Jul 01 12:53 Calm 10 Cloudy BKN080 OVC095 77 71     82%   78 30.12 30.08      
Jul 01 11:53 SSW 5 10 Cloudy SCT016 BKN023 OVC080 76 71     85%   77 30.14 30.1      
Jul 01 10:53 S 5 10 Mostly Cloudy BKN013 BKN080 75 71     88%   76 30.13 30.09      
Jul 01 09:53 Calm 10 Cloudy OVC010 72 68     87%   73 30.11 30.07      
Jul 01 08:31 Calm 10 Mostly Cloudy BKN015 69 66     90%     30.09        
Jul 01 07:53 Calm 10 Clear CLR 68 67     96%     30.07 30.04      
Jul 01 06:53 Calm 10 Mostly Clear FEW070 66 66     100%     30.06 30.03      
Jul 01 05:53 WNW 3 10 Partly Cloudy FEW075 SCT090 66 66     100%     30.06 30.03      
Jul 01 04:53 S 5 10 Mostly Cloudy SCT039 BKN055 67 66     97%     30.05 30.01      
Jul 01 03:53 S 5 10 Mostly Cloudy SCT060 BKN080 67 67     100%     30.04 30      
Jul 01 02:33 S 3 10 Mostly Clear FEW002 67 67     100%     30.02        
Jul 01 01:53 Calm 10 Clear CLR 67 67     100%     30.03 29.99      
Jul 01 01:22 Calm 10 Mostly Clear FEW004 67 67     100%     30.03        
Jul 01 00:53 NNW 5 10 Clear CLR 67 67     100%     30.02 29.98     1
Jun 30 23:53 S 8 10 Cloudy OVC060 69 66     90%     30.04 30.01 0    
Jun 30 23:23 6 10 Thunderstorms and Rain FEW016 SCT055 BKN075 70 68     93%     30.04   0    
Jun 30 23:10 SSW 11 10 Light Rain FEW018 BKN055 BKN075 71 69     93%   72 30.04   0    
Jun 30 22:38 S 7 10 Thunderstorms and Rain BKN028 BKN060 BKN100 72 71     97%   73 30.03   0    
Jun 30 22:17 ENE 3 10 Thunderstorms and Rain SCT030 BKN060 BKN100 72 71     97%   73 30.03   0    
Jun 30 22:09 WSW 5 10 Light Rain FEW032 SCT060 BKN100 71 71     100%   73 30.02   0    
Jun 30 21:53 Calm 10 Mostly Clear FEW100 72 71     97%   73 30 29.96 0 1  
Jun 30 21:31 Calm 10 Clear CLR 71 71     100%   73 29.99   0    
Jun 30 21:11 ESE 7 10 Light Rain FEW046 SCT100 BKN120 71 71     100%   73 29.96   0    
Jun 30 20:53 SSW 3 3 Light Rain and Fog/Mist SCT029 BKN060 OVC120 72 72     100%   74 29.99 29.96 0    
Jun 30 20:50 Calm 3 Light Rain and Fog/Mist BKN033 BKN100 OVC120 72 72     100%   73 30   0    
Jun 30 20:23 SW 6 9 Thunderstorms and Rain FEW030 BKN039 OVC050 72 72     100%   74 29.99   0    
Jun 30 20:14 S 3 9 Light Rain FEW027 BKN039 OVC050 72 72     100%   74 29.98   0    
Jun 30 20:05 SW 6 3 Thunderstorms and Rain and Fog/Mist FEW027 BKN050 OVC065 72 72     100%   74 29.99   0    
Jun 30 19:53 Calm 1.5 Thunderstorms and Heavy Rain and Fog/Mist FEW033 BKN050 OVC100 72 72     100%   74 29.98 29.94 0    
Jun 30 19:36 Calm 7 Thunderstorms and Rain SCT028 BKN037 OVC100 73 72     96%   75 29.98   0    
Jun 30 19:24 ENE 3 3 Light Rain and Fog/Mist FEW028 BKN039 OVC060 73 71     94%   74 29.96   0    
Jun 30 19:15 Calm 1.25 Heavy Rain and Fog/Mist FEW028 OVC039 73 71     94%   74 29.97   0    
Jun 30 18:53 N 3 10 Cloudy OVC042 76 70     82%   77 29.97 29.93      
Jun 30 17:53 WNW 3 10 Cloudy SCT037 OVC050 78 69     74%   79 29.97 29.93      
Jun 30 16:53 W 6 10 Mostly Cloudy BKN050 80 70     71%   83 29.97 29.93      
Jun 30 15:53 W 9 10 Mostly Cloudy FEW025 SCT044 BKN070 80 70     71%   83 29.98 29.94      
Jun 30 14:53 WNW 10 10 Clear CLR 79 71     77%   82 29.97 29.93      
Jun 30 13:53 W 7 10 Clear CLR 75 68     79%   76 29.96 29.92      
Jun 30 12:53 S 8 10 Clear CLR 69 65     87%     29.9 29.87 0   0
Jun 30 12:48 S 9 10 Clear CLR 70 64     83%     29.9   0    
Jun 30 12:31 SSW 11 10 Mostly Clear FEW110 68 65     90%     29.9   0    
Jun 30 11:53 S 7 10 Thunderstorms and Rain FEW036 SCT044 BKN080 68 66     93%     29.89 29.86 0    
Jun 30 11:45 S 8 10 Light Rain FEW049 SCT070 BKN110 68 66     93%     29.9   0    
Jun 30 11:20 WNW 3 10 Thunderstorms FEW075 BKN110 68 65     90%     29.92        
Jun 30 10:53 SSW 9 10 Partly Cloudy SCT120 70 63     78%     29.91 29.88 0    
Jun 30 09:53 ENE 3 10 Light Rain BKN110 66 65     96%     30.05 30.01 0 0  
Jun 30 08:59 6 9 Light Rain BKN110 66 65     96%     30.06   0    
Jun 30 08:53 3 10 Thunderstorms and Rain FEW037 FEW080 BKN110 66 65     96%     30.05 30.02 0    
Jun 30 08:39 SE 8 6 Thunderstorms and Rain and Fog/Mist FEW037 BKN075 OVC120 65 65     100%     30.03   0    
Jun 30 08:32 ESE 9 2.5 Heavy Rain and Fog/Mist SCT037 BKN060 OVC095 65 65     100%     30.03   0    
Jun 30 08:18 WNW 8 7 Light Rain SCT015 BKN060 OVC080 66 65     96%     30.09   0    
Jun 30 08:07 3 5 Rain and Fog/Mist BKN015 BKN060 OVC100 66 65     96%     30.06   0    
Jun 30 07:53 N 5 6 Light Rain and Fog/Mist SCT010 OVC016 66 65     96%     30.03 29.99 0    
Jun 30 07:43 N 5 6 Light Rain and Fog/Mist BKN011 OVC014 65 65     100%     30.02   0    
Jun 30 07:36 3 7 Light Rain BKN011 OVC014 66 65     96%     30.01   0    
Jun 30 07:26 ENE 3 10 Light Rain BKN009 OVC016 66 65     96%     29.99   0    
Jun 30 07:14 NNE 5 8 Thunderstorms and Rain FEW006 BKN012 OVC023 66 65     96%     29.98   0    
Jun 30 07:03 ENE 9 3 Thunderstorms and Rain and Fog/Mist SCT008 BKN016 OVC021 66 65     96%     29.98   0    
Jun 30 06:53 ENE 7 1 Thunderstorms and Heavy Rain and Fog/Mist FEW008 SCT013 OVC019 65 65     100%     30.01 29.97 1   1
Jun 30 06:41 N 11 1 Thunderstorms and Heavy Rain and Fog/Mist SCT010 BKN016 OVC027 65 65     100%     30.03   1    
Jun 30 06:34 7 1 Thunderstorms and Heavy Rain and Fog/Mist BKN014 BKN019 OVC027 66 65     96%     30.02   0    
Jun 30 06:27 N 11 1 Heavy Rain and Fog/Mist BKN014 BKN027 OVC040 67 65     93%     30.02   0    
Jun 30 06:18 N 11 4 Rain and Fog/Mist FEW016 BKN029 OVC042 68 65     90%     30   0    
Jun 30 05:53 Calm 10 Mostly Cloudy BKN044 BKN050 BKN065 72 71     97%   73 29.94 29.9      
Jun 30 04:53 Calm 10 Cloudy SCT047 OVC055 72 70     93%   73 29.92 29.87      
Jun 30 03:53 Calm 10 Partly Cloudy SCT042 68 68     100%     29.89 29.85      
Jun 30 02:53 Calm 10 Clear CLR 68 67     96%     29.87 29.82      
Jun 30 01:53 Calm 10 Clear CLR 67 67     100%     29.84 29.8      
Jun 30 00:53 SSE 3 10 Clear CLR 68 67     96%     29.88 29.83      
Jun 29 23:53 Calm 10 Mostly Clear FEW037 68 68     100%     29.91 29.87      
Jun 29 22:53 Calm 10 Clear CLR 70 69     97%     29.92 29.87      
Jun 29 21:53 Calm 10 Clear CLR 72 69     91%   73 29.9 29.85      
Jun 29 20:53 SE 5 10 Clear CLR 77 69     77%   78 29.88 29.83      
Jun 29 19:53 S 7 10 Clear CLR 79 69     72%   80 29.86 29.81      
Jun 29 18:53 S 14 10 Clear CLR 80 67     64%   82 29.86 29.81      
Jun 29 17:53 SSE 11 10 Partly Cloudy SCT033 80 68     67%   83 29.86 29.82      
Jun 29 16:53 S 16 10 Partly Cloudy SCT032 83 70     65%   87 29.86 29.82      
Jun 29 15:53 SSE 14 10 Mostly Clear FEW035 83 69     63%   87 29.88 29.83      
Jun 29 14:53 SSE 13 10 Mostly Clear FEW033 83 69     63%   87 29.91 29.86      
Jun 29 13:53 SSE 9 10 Mostly Clear FEW033 82 70     67%   86 29.93 29.88      
Jun 29 12:53 S 10 10 Mostly Clear FEW043 82 71     69%   86 29.95 29.9      
Jun 29 11:53 S 10 10 Cloudy FEW026 OVC036 79 69     72%   80 29.95 29.91      
Jun 29 11:14 S 9 10 Cloudy OVC030 80 70     71%   83 29.95        
Jun 29 10:53 S 14 10 Mostly Cloudy BKN029 80 69     69%   83 29.94 29.9      
Jun 29 09:53 S 14 10 Mostly Clear FEW025 79 69     72%   80 29.93 29.89      
Jun 29 08:53 S 10 10 Clear   77 69     77%   78 29.92 29.88      
Jun 29 07:53 SSE 7 10 Clear CLR 74 68     82%   75 29.91 29.87      
Jun 29 06:53 S 7 10 Clear CLR 73 67     81%   74 29.91 29.87      
Jun 29 05:53 S 8 10 Clear CLR 72 67     84%   73 29.91 29.86      
Jun 29 04:53 S 8 10 Clear CLR 72 66     82%   73 29.9 29.85      
Jun 29 03:53 S 8 10 Clear CLR 72 67     84%   73 29.91 29.86      
Jun 29 01:53 S 11 10 Clear CLR 73 67     81%   74 29.91 29.86      
Jun 29 00:53 S 6 10 Clear CLR 73 66     79%   74 29.92 29.87      
Jun 28 23:53 S 8 10 Clear CLR 73 66     79%   74 29.92 29.87      
Jun 28 19:53 S 10 10 Clear CLR 80 66     62%   82 29.89 29.85      
Jun 28 18:53 SSE 13 10 Clear CLR 82 66     58%   84 29.89 29.85      
Jun 28 17:53 SSE 9 10 Mostly Clear FEW049 84 67     57%   87 29.9 29.86      
Jun 28 16:53 SSE 18 10 Clear CLR 84 66     55%   86 29.92 29.88      
Jun 28 15:53 SSE 14 10 Clear CLR 83 67     59%   86 29.92 29.88      
Jun 28 14:53 S 16 10 Mostly Clear FEW041 84 68     59%   87 29.94 29.89      
Jun 28 13:53 SSE 13 10 Partly Cloudy SCT036 82 68     63%   85 29.97 29.92      
Jun 28 12:53 SSW 13 10 Clear CLR 83 69     63%   87 29.99 29.94      
Jun 28 11:53 S 14 10 Clear CLR 81 68     65%   84 30.01 29.96      
Jun 28 10:53 S 13 10 Clear CLR 79 68     69%   80 30.01 29.97      
Jun 28 09:53 S 15 10 Clear CLR 77 66     69%   78 30.02 29.98      
Jun 28 08:53 S 10 10 Clear CLR 75 64     69%   75 30.03 29.98      
Jun 28 07:53 S 13 10 Clear CLR 72 63     73%   72 30.02 29.98      
Jun 28 06:53 S 6 10 Clear CLR 69 63     81%     30.02 29.98      
Jun 28 05:53 S 5 10 Clear CLR 68 62     81%     29.99 29.95      
Jun 28 04:53 S 6 10 Clear CLR 69 62     78%     29.98 29.94      
Jun 28 03:53 S 3 10 Clear CLR 69 63     81%     29.99 29.94      
Jun 28 02:53 S 8 10 Clear CLR 70 62     76%     29.99 29.94      
Jun 28 01:53 Calm 10 Clear CLR 68 61     78%     30 29.96      
Jun 28 00:53 S 3 10 Clear CLR 70 61     73%     30.02 29.98      
Jun 27 23:53 SSE 7 10 Clear CLR 72 61     68%   72 30.02 29.98      
Jun 27 22:53 Calm 10 Clear CLR 71 62     73%   71 30.02 29.98      
Jun 27 21:53 SE 7 10 Clear CLR 73 63     71%   73 30.01 29.96      
Jun 27 20:53 SE 6 10 Clear CLR 74 64     71%   74 30 29.96      
Jun 27 19:53 SSE 6 10 Clear CLR 77 64     64%   77 29.99 29.96      
Jun 27 18:53 SE 10 10 Clear CLR 80 65     60%   82 29.99 29.96      
Jun 27 17:53 SSE 8 10 Clear CLR 81 61     51%   82 30.01 29.97      
Jun 27 16:53 SSE 13 10 Clear CLR 82 64     55%   84 30.02 29.98      
Jun 27 15:53 S 9 10 Mostly Clear FEW047 83 64     53%   84 30.04 30      
Jun 27 14:53 SE 8 10 Partly Cloudy SCT047 83 64     53%   84 30.05 30.01      
Jun 27 13:53 E 6 10 Clear CLR 81 61     51%   82 30.07 30.03      
Jun 27 12:53 Calm 10 Partly Cloudy SCT046 81 62     53%   82 30.08 30.04      
Jun 27 11:53 Calm 10 Clear CLR 80 62     54%   81 30.09 30.05      
Jun 27 09:53 SSE 5 10 Clear CLR 76 63     64%   76 30.12 30.08      
Jun 27 08:53 Calm 10 Clear CLR 70 62     76%     30.13 30.09      
Jun 27 07:53 SE 3 10 Clear CLR 64 60     87%     30.12 30.09      
Jun 27 06:53 3 10 Clear CLR 60 59     96%     30.11 30.08      
Jun 27 05:53 S 5 10 Clear CLR 60 59     96%     30.11 30.08      
Jun 27 04:53 Calm 10 Mostly Cloudy BKN110 63 60     90%     30.11 30.07      
Jun 27 03:53 SSE 3 10 Cloudy OVC110 63 61     93%     30.11 30.07      
Jun 27 02:53 NE 5 10 Partly Cloudy SCT120 65 62     90%     30.12 30.08      
Jun 27 01:53 E 3 10 Clear CLR 62 61     96%     30.11 30.08      
Jun 26 23:53 Calm 10 Clear CLR 63 61     93%     30.11 30.07      
Jun 26 22:53 S 6 10 Clear CLR 64 62     93%     30.09 30.05      
Jun 26 21:53 Calm 10 Clear CLR 67 63     87%     30.09 30.06      
Jun 26 20:53 Calm 10 Clear CLR 69 62     78%     30.08 30.04      
Jun 26 19:53 SSE 3 10 Clear CLR 77 61     58%   77 30.07 30.03      
Jun 26 18:53 SSE 5 10 Mostly Clear FEW100 80 58     47%   80 30.08 30.04      
Jun 26 17:53 SW 3 10 Mostly Cloudy BKN100 80 57     45%   80 30.09 30.05      
Jun 26 16:53 SSE 5 10 Clear CLR 81 55     41%   81 30.09 30.06      
Jun 26 15:53 SSW 7 10 Clear CLR 82 54     38%   81 30.13 30.09      
Jun 26 14:53 S 8 10 Clear CLR 82 54     38%   81 30.14 30.11      
Jun 26 13:53 S 11 10 Clear CLR 82 54     38%   81 30.16 30.12      
Jun 26 12:53 S 11 10 Clear CLR 81 55     41%   81 30.19 30.15      
Jun 26 11:53 S 13 10 Mostly Clear FEW110 80 55     42%   80 30.21 30.17      
Jun 26 11:36 S 10   Mostly Clear FEW003 FEW110 79 56     45%   79 30.21        
Jun 26 10:53 3 10 Clear CLR 76 61     60%   76 30.22 30.19      
Jun 26 09:53 ENE 3 10 Clear CLR 73 61     66%   73 30.24 30.2      
Jun 26 08:53 NE 3 10 Clear CLR 68 62     81%     30.24 30.21      
Jun 26 07:53 ESE 3 10 Clear CLR 64 61     90%     30.24 30.2      
Jun 26 06:53 Calm 10 Clear CLR 62 61     96%     30.23 30.2      
Jun 26 05:53 Calm 10 Mostly Cloudy BKN110 64 62     93%     30.23 30.19      
Jun 26 04:53 Calm 10 Cloudy OVC100 65 62     90%     30.23 30.19      
Jun 26 03:53 Calm 10 Cloudy OVC100 65 62     90%     30.23 30.19      
Jun 26 02:53 Calm 10 Cloudy OVC110 65 62     90%     30.23 30.19      
Jun 26 01:53 Calm 10 Partly Cloudy SCT120 65 62     90%     30.23 30.19      
Jun 26 00:53 S 3 10 Clear CLR 66 62     87%     30.24 30.2 0   0
Jun 25 23:53 Calm 10 Cloudy OVC120 66 62     87%     30.24 30.2      
Jun 25 22:53 Calm 10 Clear   65 62     90%     30.22 30.19      
Jun 25 21:53 Calm 10 Mostly Clear FEW120 67 61     81%     30.22 30.19      
Jun 25 20:53 S 5 10 Clear CLR 70 61     73%     30.2 30.17      
Jun 25 19:53 Calm 10 Clear CLR 77 57     50%   77 30.21 30.17      
Jun 25 18:53 NNE 3 10 Clear CLR 81 53     38%   80 30.21 30.17      
Jun 25 17:53 E 7 10 Clear CLR 82 50     33%   81 30.21 30.17      
Jun 25 16:53 SSE 3 10 Clear CLR 82 51     34%   81 30.23 30.2      
Jun 25 14:53 Calm 10 Clear CLR 82 52     35%   81 30.26 30.22      
Jun 25 13:53 Calm 10 Clear CLR 80 53     39%   80 30.27 30.24      
Jun 25 12:53 NE 5 10 Clear CLR 81 51     35%   80 30.29 30.25      
Jun 25 11:53 Calm 10 Clear CLR 79 48     34%   78 30.3 30.27      
Jun 25 10:53 3 10 Clear CLR 77 52     42%   76 30.31 30.27      
Jun 25 09:53 3 10 Clear CLR 75 55     50%   75 30.3 30.27      
Jun 25 08:53 Calm 10 Clear CLR 67 59     76%     30.3 30.27      
Jun 25 07:53 S 3 10 Partly Cloudy SCT120 62 59     90%     30.3 30.27      
Jun 25 06:53 Calm 10 Mostly Cloudy BKN120 60 58     93%     30.29 30.26      
Jun 25 05:53 Calm 10 Mostly Cloudy BKN120 60 59     96%     30.28 30.25      
Jun 25 04:53 Calm 10 Cloudy OVC120 60 59     96%     30.27 30.24      
Jun 25 03:53 SSE 3 10 Cloudy OVC110 60 59     96%     30.26 30.22      
Jun 25 02:53 S 3 10 Cloudy OVC110 61 59     93%     30.26 30.22      
Jun 25 01:53 S 3 10 Mostly Cloudy BKN110 60 59     96%     30.26 30.23      
Jun 25 00:53 Calm 10 Partly Cloudy SCT100 61 60     97%     30.26 30.22      
Jun 24 23:53 Calm 10 Clear CLR 62 60     93%     30.26 30.23      
Jun 24 22:53 Calm 10 Cloudy OVC110 64 60     87%     30.24 30.21      
Jun 24 21:53 Calm 10 Mostly Cloudy BKN120 64 59     84%     30.22 30.19      
Jun 24 20:53 NE 3 10 Clear CLR 68 56     65%     30.2 30.17      
Jun 24 19:53 3 10 Clear CLR 74 53     48%   73 30.18 30.14      
Jun 24 18:53 3 10 Clear CLR 77 54     45%   77 30.16 30.13      
Jun 24 17:53 ENE 8 10 Clear CLR 77 56     48%   77 30.15 30.12      
Jun 24 16:53   10 Clear CLR 77 55     47%   77 30.17 30.14      
Jun 24 15:53 N 6 10 Clear CLR 77 53     43%   76 30.18 30.15      
Jun 24 14:53 N 7 10 Clear CLR 77 57     50%   77 30.19 30.16      
Jun 24 13:53 3 10 Clear CLR 77 56     48%   77 30.21 30.17      
Jun 11 22:53 SSE 11 10 Clear CLR 75 63     66%   75 29.97 29.93      
Jun 10 17:53 S 16 10 Clear   80 66     62%   82 29.89 29.86      
Jun 10 00:53 Calm 10 Clear CLR 60 60     100%     29.93 29.9      
Jun 08 12:53 Calm 10 Clear CLR 77 52     42%   76 30.05 30.02      
Jun 07 20:53 Calm 10 Clear CLR 64 57     78%     30.02 29.99      
Jun 06 04:53 Calm 0.25 Fog VV002 62 62     100%     29.9 29.86      
Jun 06 02:53 Calm 0.5 Fog VV002 63 63     100%     29.88 29.85      
Jun 05 18:53 E 3 10 Clear CLR 79 71     77%   82 29.82 29.78     1
Jun 05 16:53 5 10 Mostly Clear FEW029 80 71     74%   84 29.8 29.76      
Notice The following observation data may not be complete
Jun 05 14:21   10 Mostly Cloudy SCT016 SCT075 BKN110          %         1    
Jun 05 14:13 E 5 4 Thunderstorms and Rain and Fog/Mist BKN020 BKN075 OVC110 70 70     100%     29.83   1    
Notice The following observation data may not be complete
Jun 05 14:10 SE 6 1 Thunderstorms and Rain and Fog/Mist BKN020 BKN075 OVC120   69      %     29.83   1